Home > Weather > Peine > Past weeks

Flag for Germany Weather for the Past 2 Weeks in Peine, Lower Saxony, Germany

Now
41 °F

Broken clouds.


Feels Like: 33 °F
Forecast: 37 / 42 °F
Wind: 16 mph from Southwest

Location: Braunschweig Wolfsburg

Current Time: Feb 10, 2016 at 12:53:09 PM

Latest Report: Feb 10, 2016 at 12:20 PM


Visibility: N/A

Pressure: 29.27 "Hg

Humidity: 81%

Dew point: 36 °F

Location of PeineLocation

Historic Weather in Peine — Graph

°F

Peine Temperature Yesterday

Maximum temperature yesterday: 48 °F (at 7:20 PM)
Minimum temperature yesterday: 43 °F (at 4:20 PM)
Average temperature yesterday: 46 °F

High & Low Weather Summary for the Past Weeks

 TemperatureHumidityPressure
High55 °F (Feb 7, 11:50 AM)100% (Feb 1, 7:20 AM)30.24 "Hg (Feb 1, 7:20 AM)
Low37 °F (Jan 28, 7:50 PM)51% (Feb 7, 11:50 AM)28.85 "Hg (Feb 9, 7:20 PM)
Average45 °F76%29.82 "Hg
* Reported Jan 26 11:20 AM — Feb 10 11:20 AM, Peine, Weather by CustomWeather, © 2016

Note: Actual official high and low records may vary slightly from our data, if they occured in-between our weather recording intervals... More about our weather records

Advertising

Peine Weather History for the Previous 24 Hours

 ConditionsComfort  
Time TempWeatherWind HumidityBarometerVisibility
11:20 AM
Wed, Feb 10
39 °FCloudy.15 mph81%29.27 "HgN/A
10:50 AM39 °FDrizzle. Mostly cloudy.16 mph81%29.27 "HgN/A
10:20 AM39 °FDrizzle. Broken clouds.12 mph81%29.24 "HgN/A
9:50 AM37 °FDrizzle. Mostly cloudy.9 mph87%29.24 "Hg5 mi
9:20 AM39 °FMostly cloudy.12 mph75%29.24 "HgN/A
8:50 AM39 °FBroken clouds.13 mph75%29.24 "HgN/A
8:20 AM37 °FPartly sunny.9 mph81%29.24 "HgN/A
7:50 AM37 °FPartly sunny.8 mph81%29.24 "HgN/A
7:20 AM37 °FPassing clouds.10 mph75%29.21 "HgN/A
6:50 AM37 °FPassing clouds.9 mph81%29.21 "HgN/A
9:50 PM
Tue, Feb 9
46 °FLight rain. Partly cloudy.33 mph76%28.85 "HgN/A
7:50 PM48 °FPartly cloudy.14 mph76%28.85 "HgN/A
7:20 PM48 °FPartly cloudy.16 mph76%28.85 "HgN/A
6:50 PM46 °FLight rain. Overcast.14 mph82%28.88 "HgN/A
6:20 PM46 °FOvercast.14 mph82%28.91 "HgN/A
5:50 PM46 °FMostly cloudy.16 mph76%28.94 "HgN/A
5:20 PM45 °FLight rain. Partly cloudy.15 mph81%28.97 "HgN/A
4:50 PM43 °FLight rain. Partly sunny.14 mph87%29.00 "HgN/A
4:20 PM43 °FLight rain. Mostly cloudy.15 mph87%29.03 "Hg5 mi
3:50 PM45 °FLight rain. Overcast.12 mph76%29.09 "HgN/A
3:20 PM46 °FLight rain. More clouds than sun.10 mph66%29.12 "HgN/A
2:50 PM46 °FLight rain. Mostly cloudy.10 mph66%29.15 "HgN/A
2:20 PM46 °FOvercast.7 mph62%29.18 "HgN/A
1:50 PM46 °FSunny.8 mph62%29.21 "Hg10 mi
1:20 PM46 °FSunny.10 mph62%29.24 "Hg10 mi
12:50 PM46 °FSunny.14 mph62%29.27 "Hg10 mi
12:20 PM46 °FSunny.15 mph62%29.30 "Hg10 mi
Weather by CustomWeather, © 2016

See weather overviewHow to use our weather pages